This demonstration page uses our WeatherBlox Daily Observations layout. Learn more.

40.92945, -100.16068

Hourly Observations for December 20, 2018

Temp ( °F °C ) Dew Point ( °F °C ) Humidity (%) Winds ( mph kmh ) Pressure ( in mb ) Visibility ( mi km ) Precip ( " mm )
12:15 am 00:15 Clear 35 1.8 28 -2.4 74 74 WNW 16 26 30.06 1018 10 16.0934 0 0
12:35 am 00:35 Clear 35 1.8 28 -2.5 73 73 WNW 15 24 30.06 1018 10 16.0934 0 0
12:55 am 00:55 Clear 35 1.5 28 -2.4 76 76 WNW 16 26 30.06 1018 10 16.0934 0 0
1:15 am 01:15 Clear 35 1.8 28 -2.5 73 73 WNW 18 30 30.06 1018 10 16.0934 0 0
1:35 am 01:35 Clear 35 1.8 28 -2.5 73 73 WNW 18 30 30.06 1018 10 16.0934 0 0
1:55 am 01:55 Clear 35 1.7 28 -2.5 74 74 WNW 17 28 30.06 1018 10 16.0934 0 0
2:15 am 02:15 Clear 35 1.6 28 -2.5 74 74 WNW 16 26 30.09 1019 10 16.0934 0 0
2:35 am 02:35 Clear 35 1.6 27 -2.6 74 74 NW 15 24 30.09 1019 10 16.0934 0 0
2:55 am 02:55 Clear 34 1 27 -2.7 77 77 NW 12 19 30.09 1019 10 16.0934 0 0
3:15 am 03:15 Clear 34 0.9 27 -2.6 78 78 WNW 13 20 30.09 1019 10 16.0934 0 0
3:35 am 03:35 Clear 33 0.7 27 -2.7 78 78 WNW 13 20 30.09 1019 10 16.0934 0 0
3:55 am 03:55 Clear 33 0.5 27 -2.8 79 79 NW 12 19 30.12 1020 10 16.0934 0 0
4:15 am 04:15 Clear 33 0.3 27 -2.8 80 80 NW 12 19 30.12 1020 10 16.0934 0 0
4:35 am 04:35 Clear 32 0 27 -3 80 80 NW 9 15 30.12 1020 10 16.0934 0 0
4:55 am 04:55 Clear 32 -0.1 27 -3 81 81 WNW 12 19 30.12 1020 10 16.0934 0 0
5:15 am 05:15 Clear 32 0 27 -3 80 80 WNW 15 24 30.12 1020 10 16.0934 0 0
5:35 am 05:35 Clear 32 0 27 -3 80 80 WNW 17 28 30.12 1020 10 16.0934 0 0
5:55 am 05:55 Clear 32 0.1 27 -3 80 80 WNW 17 28 30.15 1021 10 16.0934 0 0
6:15 am 06:15 Clear 32 0.2 27 -3 79 79 WNW 14 22 30.15 1021 10 16.0934 0 0
6:35 am 06:35 Clear 32 0 26 -3.2 79 79 WNW 14 22 30.15 1021 10 16.0934 0 0
6:55 am 06:55 Clear 33 0.3 26 -3.1 78 78 NW 13 20 30.15 1021 10 16.0934 0 0
7:15 am 07:15 Clear 34 1.1 26 -3.1 74 74 NW 15 24 30.12 1020 10 16.0934 0 0
7:35 am 07:35 Clear 34 1.2 26 -3.1 73 73 NW 15 24 30.12 1020 10 16.0934 0 0
7:55 am 07:55 Clear 34 1.1 26 -3.1 74 74 NW 14 22 30.12 1020 10 16.0934 0 0
8:15 am 08:15 Sunny 35 1.6 26 -3.1 71 71 NW 15 24 30.12 1020 10 16.0934 0 0
8:35 am 08:35 Sunny 35 1.8 26 -3.2 70 70 NW 16 26 30.15 1021 10 16.0934 0 0
8:55 am 08:55 Sunny 37 2.5 26 -3.1 67 67 NW 18 30 30.15 1021 10 16.0934 0 0
9:15 am 09:15 Sunny 37 2.9 27 -3 66 66 NW 18 30 30.15 1021 10 16.0934 0 0
9:35 am 09:35 Sunny 38 3.5 26 -3.1 62 62 NW 17 28 30.18 1022 10 16.0934 0 0
9:55 am 09:55 Sunny 39 4.1 27 -3 60 60 NW 17 28 30.18 1022 10 16.0934 0 0
10:15 am 10:15 Sunny 40 4.7 27 -3 58 58 NW 22 35 30.15 1021 10 16.0934 0 0
10:35 am 10:35 Sunny 42 5.4 27 -2.9 55 55 NNW 24 39 30.15 1021 10 16.0934 0 0
10:55 am 10:55 Sunny 42 5.8 27 -2.8 54 54 NNW 21 33 30.15 1021 10 16.0934 0 0
11:15 am 11:15 Sunny 43 6.3 27 -2.9 52 52 NNW 18 30 30.15 1021 10 16.0934 0 0
11:35 am 11:35 Sunny 44 6.7 27 -2.6 52 52 NNW 20 31 30.15 1021 10 16.0934 0 0
11:55 am 11:55 Sunny 45 7 27 -3 49 49 NNW 21 33 30.15 1021 10 16.0934 0 0
12:15 pm 12:15 Sunny 45 7.2 27 -2.9 49 49 NW 21 33 30.15 1021 10 16.0934 0 0
12:35 pm 12:35 Sunny 46 7.6 28 -2.4 50 50 NNW 18 30 30.09 1019 10 16.0934 0 0
12:55 pm 12:55 Sunny 46 7.9 27 -2.6 48 48 NNW 22 35 30.09 1019 10 16.0934 0 0
1:15 pm 13:15 Sunny 46 8 27 -2.7 47 47 NW 23 37 30.09 1019 10 16.0934 0 0
1:35 pm 13:35 Sunny 46 8 27 -2.6 47 47 NNW 21 33 30.09 1019 10 16.0934 0 0
1:55 pm 13:55 Sunny 47 8.2 27 -2.8 46 46 NW 24 39 30.09 1019 10 16.0934 0 0
2:15 pm 14:15 Sunny 47 8.5 27 -2.6 46 46 NNW 23 37 30.09 1019 10 16.0934 0 0
2:35 pm 14:35 Sunny 47 8.3 27 -2.7 46 46 NNW 22 35 30.06 1018 10 16.0934 0 0
2:55 pm 14:55 Sunny 47 8.4 28 -2.5 47 47 NNW 23 37 30.06 1018 10 16.0934 0 0
3:15 pm 15:15 Sunny 47 8.4 27 -2.8 46 46 NNW 23 37 30.09 1019 10 16.0934 0 0
3:35 pm 15:35 Sunny 47 8.3 27 -2.7 46 46 NNW 20 31 30.06 1018 10 16.0934 0 0
3:55 pm 15:55 Sunny 46 8 27 -2.7 47 47 NNW 18 30 30.09 1019 10 16.0934 0 0
4:15 pm 16:15 Sunny 46 7.6 27 -2.6 49 49 NNW 15 24 30.09 1019 10 16.0934 0 0
4:35 pm 16:35 Sunny 44 6.9 28 -2.5 52 52 NNW 14 22 30.09 1019 10 16.0934 0 0
4:55 pm 16:55 Sunny 42 5.3 28 -2.5 58 58 NW 10 17 30.09 1019 10 16.0934 0 0
5:15 pm 17:15 Clear 38 3.6 27 -2.9 63 63 NW 8 13 30.12 1020 10 16.0934 0 0
5:35 pm 17:35 Clear 36 2.4 26 -3.3 66 66 NW 8 13 30.12 1020 10 16.0934 0 0
5:55 pm 17:55 Clear 34 1.1 26 -3.5 72 72 NW 9 15 30.12 1020 10 16.0934 0 0
6:15 pm 18:15 Clear 32 0.2 26 -3.5 76 76 NW 8 13 30.15 1021 10 16.0934 0 0
6:35 pm 18:35 Clear 32 -0.1 25 -3.9 76 76 NNW 9 15 30.15 1021 10 16.0934 0 0
6:55 pm 18:55 Clear 30 -0.9 25 -3.8 81 81 NW 7 11 30.15 1021 10 16.0934 0 0
7:15 pm 19:15 Clear 31 -0.5 25 -3.7 79 79 NW 7 11 30.15 1021 10 16.0934 0 0
7:35 pm 19:35 Clear 31 -0.8 26 -3.5 82 82 W 8 13 30.15 1021 10 16.0934 0 0
7:55 pm 19:55 Clear 32 -0.2 26 -3.2 80 80 WNW 9 15 30.15 1021 10 16.0934 0 0
8:15 pm 20:15 Clear 29 -1.6 25 -4.1 83 83 WNW 9 15 30.15 1021 10 16.0934 0 0
8:35 pm 20:35 Clear 30 -1 25 -3.7 82 82 WNW 10 17 30.15 1021 10 16.0934 0 0
8:55 pm 20:55 Clear 30 -1.1 25 -4 81 81 WNW 9 15 30.15 1021 10 16.0934 0 0
9:15 pm 21:15 Clear 30 -1.2 25 -4.1 81 81 WNW 7 11 30.15 1021 10 16.0934 0 0
9:35 pm 21:35 Clear 30 -1.2 24 -4.2 80 80 WNW 8 13 30.15 1021 10 16.0934 0 0
9:55 pm 21:55 Clear 28 -2.1 24 -4.7 83 83 WNW 6 9 30.18 1022 10 16.0934 0 0
10:15 pm 22:15 Clear 28 -2.3 23 -5 82 82 W 6 9 30.18 1022 10 16.0934 0 0
10:35 pm 22:35 Clear 28 -2.4 23 -5.1 82 82 WNW 6 9 30.15 1021 10 16.0934 0 0
10:55 pm 22:55 Clear 27 -2.7 23 -4.9 85 85 WNW 8 13 30.15 1021 10 16.0934 0 0
11:15 pm 23:15 Clear 27 -3 22 -5.3 84 84 WNW 7 11 30.15 1021 10 16.0934 0 0
11:35 pm 23:35 Clear 27 -2.9 22 -5.3 84 84 W 6 9 30.15 1021 10 16.0934 0 0
11:55 pm 23:55 Clear 26 -3.2 22 -5.5 84 84 WNW 7 11 30.15 1021 10 16.0934 0 0

Powered by AerisWeather